Volver al catálogo

FENGYUN 1C DEB

ActivoSSO
NORAD 30749·DEBRIS·🇨🇳 China

Lanzado May 10, 1999 desde Taiyuan Satellite Launch Center

Loading…

Próximos Pases (próximas 24 horas)

TLE

ActualizadoSource: Space-Track

Época: Sep 13, 2026, 06:33 UTC

1 30749U 99025ATK 26256.27355053  .00000307  00000-0  23444-3 0  9999
2 30749  98.8599 279.7457 0057616 185.9573 174.0913 13.99895693998077

Sigue FENGYUN 1C DEB en tiempo real con AllMySat

Download on the App Store